STARLINK-1905 (46746 NORAD) Tracking and Keplerian Element Data

This shows tracking and keplerian element data for the satellite.

Feedback or suggestion? Click here.




ElementValue
Catalog46746
NameSTARLINK-1905
Epoch Orbit562
Epoch Day331.16668981
Epoch Year2020
RAAN0.7681
Inclination53.0556
Eccentricity0.0001344
Argument of Perigee77.6231
Mean Anonmoly135.4017
Mean Motion15.62793122
Decay Rate0.00023958
L11 46746U 20074H 20331.16668981 .00023958 00000-0 26630-3 0 9991
L22 46746 53.0556 0.7681 0001344 77.6231 135.4017 15.62793122 5625

Live tracking and technical data element details for STARLINK-1905 (NORAD 46746). STARLINK-1905 can be tracked NOW for your location showing map with azimuth and elevation plus other details from your city location.

Track the satellite on the map from your city or location and see movement details for azimuth, elevation, latitude, longitude, range, height, and movement on the map or in text.







IsCatalogInMostPopularTable: catalog: 46746, numindb: 6
Update: records affected: 1



GetName: 46746 STARLINK-1905

Hit Count: updated at: Thu, 26 Nov 2020 18:38:51 GMT